Location: *
(51.1248°S, 108.4023°W)
Time: 20:03:45
(UTC+00:00)

USA 281 - Pass Details

Date: 30 October 2021
Orbit: 1078 x 1081 km, 106.0° (Epoch: 25 November)

Event Time Altitude Azimuth Distance (km) Brightness Sun altitude
Exits shadow 05:21:54 - 320° (NW) 3,663 5.8 -21.8°
Reaches altitude 10° 05:25:29 10° 296° (WNW) 2,936 5.5 -22.0°
Maximum altitude 05:28:08 13° 272° (W) 2,755 5.6 -22.2°
Drops below altitude 10° 05:30:47 10° 248° (WSW) 2,950 6.1 -22.3°
Sets 05:35:17 0° 220° (SW) 3,918 7.4 -22.6°
